Location: Aero Estates Airport (historical)
(33.2985°N, 96.8642°W)
Time: 03:06:37
(UTC+00:00)

BlueWalker 3 - Pass Details

Date: 26 January 2026
Orbit: 450 x 461 km, 53.2° (Epoch: 14 February)

Event Time Altitude Azimuth Distance (km) Brightness Sun altitude
Rises 00:24:47 0° 276° (W) 2,451 6.8 -7.1°
Reaches altitude 10° 00:28:38 10° 319° (NW) 1,580 4.8 -7.9°
Maximum altitude 00:29:21 11° 330° (NNW) 1,551 4.6 -8.1°
Drops below altitude 10° 00:30:04 10° 342° (NNW) 1,580 4.5 -8.2°
Enters shadow 00:33:31 - 22° (NNE) 2,324 4.9 -8.9°
